Location: Spaichingen
(48.0400°N, 8.4300°E)
Time: 21:47:31
(UTC+01:00)

ISS - Pass Details

Date: 29 January 2019
Orbit: 403 x 411 km, 51.6° (Epoch: 20 February)

Event Time Altitude Azimuth Distance (km) Brightness Sun altitude
Rises 19:51:21 0° 281° (W) 2,337 1.4 -25.1°
Reaches altitude 10° 19:53:30 10° 288° (WNW) 1,477 0.0 -25.5°
Enters shadow 19:55:07 24° 304° (NW) 894 -1.6 -25.7°
